パンスターズ彗星

P/2024 J1 ( PanSTARRS )

English version
Home page
Updated on May 11, 2024

---------------------------------------------------------------------

・ プロフィール

発見日 2024年5月1日
発見光度 20.8等
発見者 Pan-STARRS 1 telescope (Haleakala)

・ 軌道要素

Epoch 2023 Sept. 13.0 TT = JDT 2460200.5                                        
T 2023 Nov. 11.26077 TT                                 Rudenko                 
q   2.6371448            (2000.0)            P               Q                  
n   0.13276601     Peri.  200.36188     -0.94713685     -0.28853121             
a   3.8054975      Node   321.95805     +0.31675175     -0.77146052             
e   0.3070171      Incl.   13.15916     +0.05099146     -0.56709646             
P   7.42                                                                        
>From 24 observations 2024 Mar. 19-May 4, mean residual 0".3.                    

・ 光度変化

        m1 = 14.5 + 5 logΔ + 10.0 log r

---------------------------------------------------------------------

軌道要素はM.P.E.C. 2024-J133に掲載されたものです。
光度グラフはComet for Windowsで作成したものです。

---------------------------------------------------------------------

Copyright(C) Seiichi Yoshida (comet@aerith.net). All rights reserved.